+ View the NASA Portal
+ Center for Near-Earth Object Studies
IMPORTANT:
The SSD Announcement email list is now available. Major changes are coming in the near future, including possible hostname and/or URL changes. To be notified of such changes, subscribe to this email list.
Please visit
this page
for more details.
Don't show this message again
JPL Small-Body Database Browser
Search:
[
help
]
344135 (2000 BO40)
Classification:
Main-belt Asteroid
SPK-ID:
2344135
[
Ephemeris
|
Orbit Diagram
|
Orbital Elements
|
Mission Design
|
Physical Parameters
|
Discovery Circumstances
|
Close-Approach Data
]
[ show orbit diagram ]
Orbital Elements at Epoch 2458600.5 (2019-Apr-27.0) TDB
Reference:
JPL 9
(heliocentric ecliptic J2000)
Element
Value
Uncertainty (1-sigma)
Units
e
.237309514208867
6.669e-08
a
2.736255455219029
3.201e-08
au
q
2.08691600238964
1.8386e-07
au
i
8.276476491385411
7.4638e-06
deg
node
135.1208600132551
5.21e-05
deg
peri
254.067228986025
5.4631e-05
deg
M
170.4657760714028
1.9677e-05
deg
t
p
2457817.668871264000
(2017-Mar-05.16887126)
8.2954e-05
TDB
period
1653.230418678966
4.53
2.901e-05
7.943e-08
d
yr
n
.2177554900590702
3.8211e-09
deg/d
Q
3.38559490804842
3.9606e-08
au
Orbit Determination Parameters
# obs. used (total)
138
data-arc span
7040 days (19.27 yr)
first obs. used
2000-01-28
last obs. used
2019-05-08
planetary ephem.
DE431
SB-pert. ephem.
SB431-N16
condition code
0
norm. resid. RMS
.58978
source
ORB
producer
Otto Matic
solution date
2019-May-30 09:23:32
Additional Information
Earth MOID
= 1.10889 au
Jupiter MOID
= 2.12311 au
T_jup
= 3.296
[ show covariance matrix ]
[
Ephemeris
|
Orbit Diagram
|
Orbital Elements
|
Mission Design
|
Physical Parameters
|
Discovery Circumstances
|
Close-Approach Data
]
Physical Parameter Table
Parameter
Symbol
Value
Units
Sigma
Reference
Notes
absolute magnitude
H
16.4
n/a
MPO437458
344135 (2000 BO40)
Discovered 2000-Jan-28 by Spacewatch at Kitt Peak
Reference:
20121128/Numbers.arc
Last Updated:
2012-12-03
[ show close-approach data ]
Alternate Designations
2000 BO40
= 2009 CL41
[
Ephemeris
|
Orbit Diagram
|
Orbital Elements
|
Mission Design
|
Physical Parameters
|
Discovery Circumstances
|
Close-Approach Data
]
2019-Dec-07 14:36 UT
(server date/time)
Site Manager:
Ryan S. Park
Webmaster
:
Alan B. Chamberlin